Tiempo cada hora Almaly

Hoy, 28 Julio, Miércoles

Tiempo Temperatura Precipitaciones Viento Presión Humedad
00:00 +19°C° 0 mm 1 mps 689 mmHg 61%
01:00 +19°C° 0 mm 1 mps 689 mmHg 61%
02:00 +18°C° 0 mm 1 mps 689 mmHg 62%
03:00 +18°C° 0 mm 1 mps 689 mmHg 62%
04:00 +18°C° 0 mm 1 mps 689 mmHg 61%
05:00 +18°C° 0 mm 1 mps 689 mmHg 61%
06:00 +19°C° 0 mm 2 mps 689 mmHg 53%
07:00 +22°C° 0 mm 3 mps 690 mmHg 45%
08:00 +25°C° 0 mm 3 mps 690 mmHg 37%
09:00 +26°C° 0 mm 4 mps 690 mmHg 33%
10:00 +27°C° 0 mm 4 mps 690 mmHg 30%
11:00 +29°C° 0 mm 4 mps 690 mmHg 27%
12:00 +29°C° 0 mm 4 mps 690 mmHg 25%
13:00 +30°C° 0 mm 4 mps 690 mmHg 24%
14:00 +32°C° 0 mm 5 mps 689 mmHg 23%
15:00 +30°C° 0 mm 4 mps 689 mmHg 22%
16:00 +30°C° 0 mm 4 mps 689 mmHg 22%
17:00 +29°C° 0 mm 4 mps 689 mmHg 22%
18:00 +27°C° 0 mm 3 mps 689 mmHg 24%
19:00 +24°C° 0 mm 3 mps 689 mmHg 27%
20:00 +20°C° 0 mm 2 mps 688 mmHg 29%
21:00 +19°C° 0 mm 2 mps 688 mmHg 31%
22:00 +19°C° 0 mm 1 mps 688 mmHg 33%
23:00 +19°C° 0 mm 1 mps 688 mmHg 34%

Mañana, 29 Julio, Jueves

Tiempo Temperatura Precipitaciones Viento Presión Humedad
00:00 +18°C° 0 mm 1 mps 688 mmHg 37%
01:00 +18°C° 0 mm 1 mps 688 mmHg 39%
02:00 +16°C° 0 mm 1 mps 688 mmHg 41%
03:00 +16°C° 0 mm 1 mps 687 mmHg 39%
04:00 +18°C° 0 mm 1 mps 687 mmHg 38%
05:00 +18°C° 0 mm 1 mps 687 mmHg 37%
06:00 +19°C° 0 mm 2 mps 687 mmHg 32%
07:00 +23°C° 0 mm 2 mps 688 mmHg 28%
08:00 +26°C° 0 mm 2 mps 688 mmHg 23%
09:00 +27°C° 0 mm 2 mps 688 mmHg 21%
10:00 +29°C° 0 mm 3 mps 688 mmHg 19%
11:00 +31°C° 0 mm 3 mps 687 mmHg 17%
12:00 +33°C° 0 mm 3 mps 687 mmHg 17%
13:00 +34°C° 0 mm 4 mps 687 mmHg 16%
14:00 +35°C° 0 mm 4 mps 687 mmHg 15%
15:00 +35°C° 0 mm 4 mps 687 mmHg 15%
16:00 +34°C° 0 mm 4 mps 687 mmHg 15%
17:00 +34°C° 0 mm 4 mps 687 mmHg 15%
18:00 +30°C° 0 mm 4 mps 687 mmHg 18%
19:00 +27°C° 0 mm 3 mps 688 mmHg 21%
20:00 +24°C° 0 mm 3 mps 688 mmHg 24%
21:00 +21°C° 0 mm 3 mps 689 mmHg 28%
22:00 +20°C° 0 mm 3 mps 689 mmHg 32%
23:00 +18°C° 0 mm 3 mps 689 mmHg 36%

Pasado mañana, 30 Julio, Viernes

Tiempo Temperatura Precipitaciones Viento Presión Humedad
00:00 +18°C° 0.1 mm 3 mps 690 mmHg 39%
01:00 +19°C° 0.1 mm 2 mps 690 mmHg 42%
02:00 +19°C° 0.1 mm 2 mps 690 mmHg 45%
03:00 +20°C° 0.1 mm 1 mps 690 mmHg 46%
04:00 +20°C° 0.1 mm 1 mps 690 mmHg 47%
05:00 +20°C° 0.1 mm 1 mps 691 mmHg 47%
06:00 +21°C° 0 mm 1 mps 691 mmHg 43%
07:00 +21°C° 0 mm 2 mps 692 mmHg 38%
08:00 +24°C° 0 mm 2 mps 693 mmHg 33%
09:00 +24°C° 0.1 mm 2 mps 693 mmHg 33%
10:00 +24°C° 0.1 mm 2 mps 693 mmHg 33%
11:00 +25°C° 0.1 mm 1 mps 694 mmHg 33%
12:00 +26°C° 0 mm 2 mps 693 mmHg 31%
13:00 +27°C° 0 mm 2 mps 693 mmHg 29%
14:00 +28°C° 0 mm 3 mps 693 mmHg 27%
15:00 +28°C° 0 mm 3 mps 693 mmHg 26%
16:00 +28°C° 0 mm 3 mps 693 mmHg 26%
17:00 +28°C° 0 mm 3 mps 693 mmHg 25%
18:00 +26°C° 0 mm 3 mps 693 mmHg 28%
19:00 +24°C° 0 mm 2 mps 693 mmHg 31%
20:00 +20°C° 0 mm 2 mps 694 mmHg 35%
21:00 +20°C° 0 mm 2 mps 693 mmHg 37%
22:00 +19°C° 0 mm 2 mps 693 mmHg 38%
23:00 +18°C° 0 mm 2 mps 693 mmHg 40%

31 Julio, Sábado

Tiempo Temperatura Precipitaciones Viento Presión Humedad
00:00 +18°C° 0 mm 2 mps 693 mmHg 41%
01:00 +17°C° 0 mm 2 mps 693 mmHg 42%
02:00 +17°C° 0 mm 2 mps 693 mmHg 42%
03:00 +17°C° 0 mm 2 mps 693 mmHg 41%
04:00 +17°C° 0 mm 2 mps 693 mmHg 40%
05:00 +17°C° 0 mm 2 mps 694 mmHg 39%
06:00 +20°C° 0 mm 3 mps 694 mmHg 33%
07:00 +23°C° 0 mm 4 mps 694 mmHg 27%
08:00 +27°C° 0 mm 5 mps 694 mmHg 21%
09:00 +28°C° 0 mm 5 mps 694 mmHg 19%
10:00 +30°C° 0 mm 5 mps 694 mmHg 17%
11:00 +32°C° 0 mm 5 mps 694 mmHg 15%
12:00 +32°C° 0 mm 5 mps 693 mmHg 14%
13:00 +33°C° 0 mm 5 mps 693 mmHg 13%
14:00 +33°C° 0 mm 6 mps 693 mmHg 12%
15:00 +33°C° 0 mm 5 mps 693 mmHg 12%
16:00 +33°C° 0 mm 5 mps 692 mmHg 12%
17:00 +32°C° 0 mm 4 mps 692 mmHg 12%
18:00 +28°C° 0 mm 4 mps 692 mmHg 14%
19:00 +25°C° 0 mm 3 mps 692 mmHg 16%
20:00 +21°C° 0 mm 3 mps 692 mmHg 19%
21:00 +21°C° 0 mm 3 mps 692 mmHg 21%
22:00 +20°C° 0 mm 3 mps 692 mmHg 24%
23:00 +20°C° 0 mm 3 mps 691 mmHg 27%

1 Agosto, Domingo

Tiempo Temperatura Precipitaciones Viento Presión Humedad
00:00 +19°C° 0 mm 3 mps 691 mmHg 29%
01:00 +19°C° 0 mm 2 mps 691 mmHg 32%
02:00 +19°C° 0 mm 2 mps 691 mmHg 35%
03:00 +19°C° 0 mm 2 mps 691 mmHg 35%
04:00 +19°C° 0 mm 2 mps 691 mmHg 35%
05:00 +19°C° 0 mm 2 mps 691 mmHg 35%
06:00 +23°C° 0 mm 2 mps 691 mmHg 30%
07:00 +27°C° 0 mm 2 mps 691 mmHg 24%
08:00 +30°C° 0 mm 2 mps 691 mmHg 18%
09:00 +31°C° 0 mm 3 mps 691 mmHg 16%
10:00 +34°C° 0 mm 4 mps 691 mmHg 14%
11:00 +36°C° 0 mm 4 mps 691 mmHg 12%
12:00 +36°C° 0 mm 4 mps 691 mmHg 12%
13:00 +37°C° 0 mm 5 mps 690 mmHg 11%
14:00 +37°C° 0 mm 5 mps 690 mmHg 10%
15:00 +37°C° 0 mm 5 mps 690 mmHg 10%
16:00 +36°C° 0 mm 5 mps 690 mmHg 11%
17:00 +35°C° 0 mm 5 mps 690 mmHg 11%
18:00 +32°C° 0 mm 4 mps 690 mmHg 14%
19:00 +28°C° 0 mm 3 mps 689 mmHg 17%
20:00 +25°C° 0 mm 2 mps 689 mmHg 20%
21:00 +24°C° 0 mm 2 mps 689 mmHg 22%
22:00 +24°C° 0 mm 2 mps 689 mmHg 24%
23:00 +23°C° 0 mm 2 mps 689 mmHg 26%

2 Agosto, Lunes

Tiempo Temperatura Precipitaciones Viento Presión Humedad
00:00 +21°C° 0 mm 2 mps 689 mmHg 28%
01:00 +21°C° 0 mm 2 mps 689 mmHg 29%
02:00 +21°C° 0 mm 2 mps 688 mmHg 31%
03:00 +21°C° 0 mm 2 mps 689 mmHg 31%
04:00 +21°C° 0 mm 2 mps 689 mmHg 30%
05:00 +21°C° 0 mm 2 mps 689 mmHg 30%
06:00 +25°C° 0 mm 2 mps 689 mmHg 25%
07:00 +28°C° 0 mm 2 mps 689 mmHg 21%
08:00 +31°C° 0 mm 2 mps 690 mmHg 16%
09:00 +33°C° 0 mm 3 mps 690 mmHg 15%
10:00 +35°C° 0 mm 3 mps 690 mmHg 14%
11:00 +36°C° 0 mm 4 mps 690 mmHg 13%
12:00 +37°C° 0 mm 4 mps 690 mmHg 12%
13:00 +37°C° 0 mm 4 mps 690 mmHg 12%
14:00 +39°C° 0 mm 5 mps 689 mmHg 12%
15:00 +37°C° 0 mm 5 mps 689 mmHg 12%
16:00 +37°C° 0 mm 5 mps 689 mmHg 12%
17:00 +36°C° 0 mm 5 mps 689 mmHg 12%
18:00 +33°C° 0 mm 4 mps 689 mmHg 15%
19:00 +29°C° 0 mm 3 mps 689 mmHg 18%
20:00 +26°C° 0 mm 3 mps 689 mmHg 21%
21:00 +25°C° 0 mm 3 mps 689 mmHg 22%
22:00 +24°C° 0 mm 2 mps 689 mmHg 23%
23:00 +24°C° 0 mm 2 mps 689 mmHg 24%
Mostrar más

Necesitamos Su Consentimiento

Meteoprog y nuestros Proveedores de Servicios pueden almacenar y acceder a sus datos personales como cookies, identificadores de dispositivo u otras tecnologías similares de su dispositivo y procesar dichos datos para personalizar contenido y anuncios, además de ofrecer funciones de redes sociales y analizar el tráfico.

  • Almacenar y/o acceder a información en su dispositivo

    Se puede almacenar o acceder a cookies, identificadores de dispositivo u otra información de su dispositivo para los fines anteriormente indicados.

  • Anuncios y contenido personalizados, medición de anuncios y contenido, percepciones del público, y desarrollo de productos

    Los anuncios y el contenido pueden personalizarse en base a su perfil. Se pueden añadir más datos para personalizar mejor los anuncios y contenidos. Se puede medir el rendimiento de los anuncios y contenidos. Se puede obtener la percepción sobre el público que ha visto los anuncios y contenidos. Dichos datos pueden usarse para desarrollar o mejorar la experiencia del usuario, sistemas y software.

Al hacer clic en ‘Estoy De Acuerdo’ usted permitirá el uso de las cookies, identificadores de dispositivo, balizas web u otras tecnologías similares indicadas. Su configuración puede cambiarse desde el navegador de su dispositivo.

Para ciertos fines, los intereses legítimos pueden ser considerados por encima del consentimiento. Puede leer más sobre ello en nuestra Política de Privacidad y Cookies.